Погода в Новой Бухтарме

Казахстан     49°37′37″N   83°31′07″E
темп.,
°C
ветер,
м/с
пор.,
м/с
влажн.,
%
обл.,
%
осадки,
мм/ч
давл.,
гПа
погр.,
м
19 сентября, вс
вс1900:00+5сз33873 0.0 101442
03:00+4с21850 0.0 101511
06:00+4в229074 0.0 101411
09:00+10юв3366100 0.0 1013339
12:00+15юв443799 0.0 1011624
15:00+17юв342424 0.0 1009687
18:00+14вюв11295 0.0 100711
21:00+10зсз113575 0.0 100711
20 сентября, пн
пн2000:00+7сз4863100 0.0 1010228
03:00+4сз58746 0.0 1013202
06:00+2сз33815 0.0 101827
09:00+7зсз455224 0.0 10191166
12:00+9зсз56375 0.0 10181580
15:00+11зсз57300 0.0 10161755
18:00+8сз463021 0.0 1017150
21:00+3ссз33410 0.0 101921
21 сентября, вт
вт2100:00+2с11442 0.0 101910
03:00+1св114830 0.0 101810
06:00+1св1150100 0.0 101910
09:00+6з223767 0.0 1018597
12:00+9зсз66357 0.0 10171775
15:00+9зсз893428 0.0 10171837
18:00+5сз68496 0.0 1019622
21:000сз44724 0.0 102167
22 сентября, ср
ср2200:00−2сз338418 0.0 102246
03:00−3ссз33885 0.0 102344
06:00−4сз33885 0.0 102433
09:00+2зсз33615 0.0 1023547
12:00+7з33405 0.0 10211306
15:00+8зсз55321 0.0 10191477
18:00+5зсз47410 0.0 1020170
21:000сз33620 0.0 102335
23 сентября, чт
чт2300:00−1сз337378 0.0 102334
03:00−2сз337867 0.0 102327
06:00−3ссз33800 0.0 102423
09:00+3зсз235186 0.0 1023622
12:00+6з4340100 0.0 10221159
15:00+6зсз5541100 0.0 10211069
18:00+4сз4749100 0.0 1022659
21:00+2сз3557100 0.0 1024185